Content
SEND FEEDBACK

Daily
Averages
Monthly
Summary
United States of America

CHICAGO, ILLINOIS


Home > North America > United States > Illinois
Elevation: 674 feet     Latitude: 41 59N     Longitude: 087 54W

WEATHER
 
SELECT A DAY
Number of Records: 198,060;   Date Range: 7/8/95 - 10/29/14
 
SHARE

PRINT THIS DATA

[ ← Previous Day ]
WEATHER ALMANAC - AUGUST 25, 2014
[ Next Day → ]
[ °C ]   °F
Weather ElementAverageHighLow
Temperature78.1 °F88 °F (10:35 am)71.1 °F (9:52 pm)
Dewpoint69.5 °F77 °F (10:35 am)32 °F (1:07 pm)
Humidity77.4 %90 % (3:52 am)21 % (1:07 pm)
Barometer30.02 in30.10 in (12:52 am)29.97 in (6:52 pm)
Wind Speed5.8 mph13.8 mph (10:18 am)
Wind Gust23 mph (12:52 pm)
Weather ElementAverage
Visibility8.1 mi
Wind DirectionESE (129.1 °)

Weather ElementTotal
Precipitation0.41 in
Cooling Degree Days14.6 (Base 65)
Growing Degree Days29.6 (Base 50)
Averaged from 35 records on August 25, 2014
WEATHER CONDITIONS BREAKOUT
WIND DIRECTION BREAKOUT
WEATHER BY HOUR - AUGUST 25, 2014
[ °C ]   °F
Local TimeTemperatureDewpointHumidityBarometerVisibilityWind DirectionWind SpeedGust SpeedPrecipitationEventsConditions
12:36 AM77.0 °F72.0 °F84 %30.01 in7.0 miCalmMostly Cloudy
12:52 AM77.0 °F72.0 °F84 %30.00 in7.0 miCalmMostly Cloudy
1:19 AM77.0 °F73.0 °F88 %30.00 in7.0 miESE (120°)3.5 mphScattered Clouds
1:43 AM77.0 °F73.0 °F88 %30.00 in7.0 miCalmMostly Cloudy
1:52 AM77.0 °F73.0 °F88 %29.98 in7.0 miSSE (150°)3.5 mphMostly Cloudy
2:13 AM78.1 °F73.9 °F87 %30.00 in8.0 miSSE (150°)5.8 mphScattered Clouds
2:52 AM78.1 °F73.9 °F87 %29.98 in9.0 miSSE (150°)4.6 mphMostly Cloudy
3:52 AM79.0 °F73.9 °F84 %29.99 in10.0 miSouth (170°)6.9 mphMostly Cloudy
4:05 AM79.0 °F73.9 °F84 %30.00 in10.0 miSouth (170°)5.8 mphScattered Clouds
4:52 AM77.0 °F73.9 °F90 %29.98 in9.0 miSSE (160°)5.8 mphScattered Clouds
5:12 AM79.0 °F73.9 °F84 %29.99 in9.0 miSouth (170°)6.9 mphMostly Cloudy
5:52 AM79.0 °F75.0 °F88 %29.99 in9.0 miSouth (180°)6.9 mphOvercast
6:52 AM79.0 °F75.0 °F88 %30.01 in7.0 miSouth (170°)4.6 mphOvercast
7:39 AM80.1 °F75.0 °F85 %30.03 in7.0 miSouth (180°)5.8 mphPartly Cloudy
7:52 AM80.1 °F75.0 °F85 %30.02 in7.0 miSouth (170°)5.8 mphClear
8:19 AM81.0 °F75.0 °F82 %30.04 in7.0 miVariable5.8 mphMostly Cloudy
9:52 AM84.9 °F75.9 °F74 %30.02 in9.0 miSouth (190°)6.9 mphPartly Cloudy
10:35 AM88.0 °F77.0 °F70 %30.04 in9.0 miVariable3.5 mphMostly Cloudy
10:52 AM87.1 °F75.9 °F69 %30.02 in10.0 miWest (260°)8.1 mphOvercast
11:05 AM82.9 °F73.0 °F72 %30.04 in8.0 miNNW (330°)13.8 mph20.7 mphThunderstormThunderstorm
11:19 AM81.0 °F72.0 °F74 %30.05 in6.0 miWNW (300°)12.7 mph23.0 mph0.03 inRain-ThunderstormLight Thunderstorms and Rain
11:52 AM77.0 °F69.1 °F76 %30.04 in10.0 miNNE (30°)10.4 mph0.10 inThunderstormThunderstorm
12:43 PM77.0 °F66.9 °F71 %30.10 in1.8 miNW (320°)12.7 mph23.0 mph0.11 inRain-ThunderstormHeavy Thunderstorms and Rain
12:52 PM73.9 °F68.0 °F82 %30.06 in1.2 miNE (40°)11.5 mph23.0 mph0.17 inRain-ThunderstormLight Thunderstorms and Rain
12:55 PM73.9 °F68.0 °F82 %30.06 in3.0 miNNE (30°)11.5 mph0.00 inRain-ThunderstormLight Thunderstorms and Rain
1:07 PM73.9 °F32.0 °F21 %30.05 in9.0 miEast (80°)5.8 mph0.00 inScattered Clouds
1:52 PM73.9 °F32.0 °F21 %30.02 in10.0 miENE (60°)5.8 mph0.00 inClear
2:52 PM73.9 °F69.1 °F85 %29.99 in10.0 miSE (140°)4.6 mphClear
3:52 PM75.0 °F69.1 °F82 %29.99 in10.0 miSSE (150°)3.5 mphClear
4:52 PM80.1 °F68.0 °F67 %30.02 in10.0 miSouth (180°)4.6 mphMostly Cloudy
5:52 PM79.0 °F66.9 °F66 %29.97 in10.0 miSSE (160°)5.8 mphPartly Cloudy
6:52 PM78.1 °F66.9 °F68 %29.98 in10.0 miNW (310°)9.2 mph0.00 inMostly Cloudy
7:52 PM75.9 °F68.0 °F76 %30.01 in10.0 miCalmClear
10:52 PM71.1 °F66.9 °F87 %30.02 in10.0 miCalmClear
11:52 PM71.1 °F68.0 °F90 %30.04 in10.0 miCalmPartly Cloudy
Hourly data recorded from KPWK, located miles away from Chicago, Illinois







STORIES FROM OUR PARTNERS